Probability
0 0 0 0 0 0 0 0 0 0 0 0 0 0 3 3 3 3 3 3 10 10 10 13 10 13 13 3 3 3 3 6 6 3 0 0 0 0 0 0 0 3 0 0
0 0 0 0 0 0 0 0 0 0 0 0 0 0 0 3 6 3 3 3 6 10 10 16 13 10 6 3 3 3 6 3 3 3 3 3 0 3 0 3 0 0 3 3
0 0 0 0 0 0 0 0 0 0 0 0 0 0 0 0 3 3 3 6 13 10 10 10 13 6 3 3 3 10 6 6 6 3 3 3 3 3 3 3 3 3 6 10
0 0 0 0 0 0 0 0 0 0 0 0 0 0 0 0 3 6 3 3 10 13 6 6 6 10 6 3 6 10 10 10 6 3 6 3 3 3 3 3 3 3 3 10
0 0 0 0 0 0 0 0 0 0 0 0 0 0 0 3 3 6 3 3 6 3 0 3 3 3 10 10 6 10 10 10 10 3 3 3 3 3 0 3 3 3 3 6
0 0 0 0 0 0 0 0 0 0 0 0 0 0 0 0 0 6 3 3 3 3 0 0 0 3 6 6 6 10 10 10 10 6 3 3 3 3 3 0 3 3 3 3
0 0 0 0 0 0 0 0 0 0 0 0 0 0 0 0 3 0 0 3 3 0 0 0 3 3 3 6 6 10 10 10 10 10 6 3 3 3 3 3 0 3 3 3
0 0 0 0 0 0 0 0 0 0 0 0 0 0 0 3 0 0 0 0 0 0 0 0 0 3 3 6 6 10 10 10 10 10 6 6 3 3 3 3 0 0 3 3
0 0 0 0 0 0 0 0 0 0 0 0 0 0 0 0 3 0 0 0 0 0 0 0 0 3 3 3 6 6 10 10 10 10 6 6 3 3 3 3 3 0 0 0
0 0 0 0 0 0 0 0 0 0 0 0 0 0 0 0 0 0 0 0 0 0 0 0 0 0 3 3 6 6 6 6 6 10 6 6 3 3 3 6 6 3 3 3
0 0 0 0 0 0 0 0 0 0 0 0 0 0 0 0 0 0 0 0 0 0 0 0 0 0 3 3 6 6 6 6 6 3 3 3 3 6 3 3 3 3 3 3
0 0 0 0 0 0 0 0 0 0 0 0 0 0 0 0 0 0 0 0 0 0 0 0 0 0 0 6 6 3 3 6 6 3 3 3 3 3 3 0 0 3 3 3
0 0 0 0 0 0 0 0 0 0 0 0 0 0 0 0 0 0 0 0 0 0 0 0 3 3 3 3 3 3 3 3 3 3 3 3 3 3 3 3 3 0 0 0
0 0 0 0 0 0 0 0 0 0 0 0 0 0 0 0 0 0 0 0 0 0 0 0 3 3 3 3 3 3 3 3 3 3 3 3 3 3 3 3 3 0 0 0
0 0 0 0 0 0 0 0 0 0 0 0 0 0 0 0 0 0 0 0 0 0 3 0 0 0 0 0 0 0 0 0 3 3 3 3 3 3 3 3 3 3 0 0
0 0 0 0 0 0 0 0 0 0 0 0 0 0 0 0 0 0 0 0 0 0 0 3 0 0 0 0 0 0 0 0 0 0 0 3 3 6 6 3 3 3 3 0
0 0 0 0 0 0 0 0 0 0 0 0 0 0 0 0 0 0 0 0 0 0 3 3 3 3 3 0 0 0 0 0 0 0 3 3 3 3 3 0 0 0 0 0
0 0 0 0 0 0 0 0 0 0 0 0 0 0 0 0 0 0 0 0 0 3 3 3 3 0 0 0 0 0 0 0 0 0 3 3 3 3 0 0 0 0 0 0
0 0 0 0 0 0 0 0 0 0 0 0 0 0 0 0 0 0 0 0 0 3 3 3 0 0 0 0 0 0 0 0 0 3 3 3 3 3 0 0 0 0 0 0
0 0 0 0 0 0 0 0 0 0 0 0 0 0 0 0 0 0 0 0 0 0 3 3 0 0 0 0 0 0 0 0 3 3 3 3 3 3 0 0 0 0 3 3
0 0 0 0 0 0 0 0 0 0 0 0 0 0 0 0 0 0 0 0 0 0 0 0 0 0 0 0 0 0 0 0 3 3 3 3 3 0 0 3 3 3 3 3
0 0 0 0 0 0 0 0 0 0 0 0 0 0 0 0 0 0 0 0 0 0 0 0 0 0 0 0 0 0 0 3 3 3 3 3 0 0 0 0 0 0 3 3
0 0 0 0 0 0 0 0 0 0 0 0 0 0 0 0 0 0 0 0 0 0 0 3 0 0 0 0 0 0 0 3 3 3 3 3 0 0 0 0 0 0 0 0
0 0 0 0 0 0 0 0 0 0 0 0 0 0 0 0 0 0 0 0 0 0 0 0 0 0 3 0 0 0 3 3 3 3 3 0 0 0 0 0 0 0 0 0
0 0 0 0 0 0 0 0 0 0 0 0 0 0 0 0 0 0 0 0 0 0 0 0 0 0 0 0 0 3 3 3 3 3 3 0 0 0 0 0 0 0 0 0
0 0 0 0 0 0 0 0 0 0 0 0 0 0 0 0 0 0 0 0 0 0 0 0 0 0 0 0 0 0 3 3 3 3 0 0 0 0 0 0 0 0 0 0
Height
5824 5826 5826 5827 5827 5828 5829 5829 5830 5831 5831 5831 5832 5833 5834 5834 5834 5834 5835 5835 5835 5835 5835 5834 5833 5832 5831 5830 5829 5828 5827 5826 5826 5825 5825 5825 5824 5823 5823 5822 5821 5820 5820 5819
5822 5823 5824 5823 5824 5824 5825 5826 5827 5827 5828 5828 5828 5829 5830 5830 5831 5831 5832 5832 5832 5831 5831 5831 5830 5830 5829 5828 5826 5826 5825 5824 5823 5823 5823 5822 5822 5821 5820 5819 5818 5817 5816 5816
5818 5820 5819 5820 5820 5821 5822 5823 5823 5823 5824 5824 5825 5826 5827 5827 5827 5828 5828 5828 5827 5827 5827 5827 5827 5826 5826 5825 5823 5823 5822 5821 5820 5820 5820 5819 5818 5818 5817 5816 5815 5815 5814 5813
5814 5815 5816 5816 5817 5817 5818 5819 5819 5819 5820 5820 5821 5821 5823 5823 5823 5824 5824 5824 5824 5824 5824 5824 5823 5823 5822 5821 5820 5819 5818 5818 5818 5817 5817 5816 5815 5814 5814 5814 5813 5812 5811 5810
5810 5811 5812 5813 5814 5814 5815 5816 5816 5816 5816 5816 5817 5817 5820 5819 5820 5820 5821 5821 5821 5820 5820 5820 5820 5819 5818 5818 5817 5816 5815 5815 5815 5815 5814 5813 5813 5812 5812 5811 5810 5809 5808 5808
5807 5807 5808 5810 5810 5811 5811 5812 5812 5812 5812 5813 5814 5814 5815 5816 5816 5816 5817 5817 5817 5817 5816 5816 5816 5815 5815 5814 5814 5813 5813 5812 5812 5812 5811 5810 5810 5809 5808 5808 5807 5806 5805 5805
5802 5803 5804 5805 5806 5807 5808 5808 5808 5808 5808 5810 5811 5810 5812 5812 5812 5812 5813 5813 5813 5813 5812 5812 5811 5812 5812 5811 5811 5810 5810 5810 5809 5809 5808 5808 5807 5806 5805 5805 5804 5803 5802 5801
5798 5800 5801 5801 5803 5803 5804 5804 5805 5805 5805 5806 5806 5806 5809 5808 5808 5808 5809 5809 5809 5809 5809 5808 5808 5808 5808 5808 5808 5807 5807 5807 5806 5806 5805 5804 5804 5803 5802 5802 5801 5800 5799 5798
5794 5796 5797 5798 5799 5800 5800 5800 5801 5801 5801 5802 5802 5804 5804 5804 5804 5805 5805 5806 5806 5806 5806 5805 5805 5805 5805 5804 5804 5804 5804 5803 5803 5802 5801 5801 5800 5800 5799 5799 5798 5797 5796 5795
5790 5791 5793 5794 5795 5795 5796 5796 5797 5797 5797 5797 5798 5799 5801 5800 5801 5801 5801 5802 5802 5802 5802 5802 5802 5802 5802 5801 5801 5801 5800 5800 5799 5798 5798 5798 5797 5797 5797 5796 5795 5794 5794 5793
5786 5787 5789 5790 5790 5791 5792 5793 5792 5793 5793 5793 5794 5797 5797 5797 5797 5797 5798 5798 5799 5799 5799 5799 5799 5799 5799 5798 5798 5797 5796 5796 5795 5795 5795 5795 5794 5794 5794 5793 5793 5792 5791 5790
5781 5783 5784 5786 5787 5787 5788 5789 5789 5790 5790 5790 5790 5795 5793 5793 5793 5793 5794 5795 5795 5795 5795 5795 5795 5795 5795 5795 5794 5794 5793 5793 5792 5792 5791 5791 5791 5791 5791 5790 5790 5789 5788 5787
5777 5778 5779 5780 5784 5784 5784 5785 5785 5786 5786 5786 5787 5791 5789 5789 5790 5790 5790 5791 5791 5792 5792 5792 5792 5791 5791 5791 5791 5790 5790 5789 5789 5788 5788 5788 5788 5788 5787 5787 5786 5786 5785 5784
5773 5774 5776 5777 5777 5778 5779 5780 5781 5781 5781 5782 5783 5784 5785 5785 5786 5787 5787 5787 5787 5788 5788 5788 5788 5788 5788 5788 5788 5787 5787 5786 5786 5785 5785 5785 5784 5784 5784 5783 5783 5782 5782 5781
5767 5769 5770 5772 5773 5774 5775 5776 5776 5777 5778 5778 5779 5780 5781 5781 5782 5783 5783 5784 5783 5783 5784 5784 5784 5784 5784 5784 5784 5783 5783 5782 5782 5781 5781 5781 5781 5780 5780 5779 5779 5778 5778 5777
5762 5764 5765 5767 5768 5769 5769 5771 5772 5772 5773 5774 5775 5776 5777 5777 5778 5779 5779 5779 5779 5780 5780 5780 5780 5780 5779 5779 5779 5779 5778 5778 5778 5777 5777 5777 5777 5776 5776 5775 5775 5774 5774 5773
5757 5759 5760 5761 5763 5763 5764 5766 5767 5768 5769 5770 5771 5773 5772 5773 5774 5775 5775 5775 5775 5776 5776 5776 5775 5775 5775 5774 5774 5774 5774 5774 5774 5774 5773 5773 5773 5772 5772 5771 5770 5770 5769 5768
5752 5753 5755 5756 5758 5758 5763 5762 5763 5764 5764 5765 5766 5767 5768 5769 5770 5770 5771 5771 5771 5771 5771 5771 5771 5771 5770 5770 5769 5769 5769 5769 5769 5769 5769 5769 5768 5768 5767 5766 5766 5765 5764 5763
5746 5748 5749 5750 5751 5753 5756 5757 5758 5759 5760 5761 5762 5763 5764 5764 5765 5766 5766 5766 5766 5766 5766 5766 5766 5765 5765 5765 5765 5765 5765 5765 5765 5765 5764 5764 5763 5763 5762 5761 5760 5760 5759 5758
5740 5742 5744 5745 5746 5748 5752 5752 5752 5755 5755 5756 5757 5758 5758 5759 5761 5762 5761 5761 5761 5761 5761 5761 5760 5760 5760 5760 5760 5760 5760 5760 5760 5760 5759 5759 5758 5757 5757 5756 5755 5754 5753 5753
5734 5735 5737 5739 5740 5742 5745 5746 5748 5750 5751 5751 5752 5752 5753 5754 5756 5756 5756 5756 5756 5755 5755 5755 5755 5755 5754 5754 5755 5755 5755 5755 5755 5754 5754 5753 5752 5752 5751 5750 5750 5749 5748 5747
5727 5729 5730 5732 5734 5739 5739 5740 5742 5743 5744 5745 5746 5747 5748 5748 5749 5749 5750 5750 5750 5750 5750 5749 5749 5749 5749 5749 5749 5749 5750 5749 5749 5749 5748 5747 5747 5746 5746 5745 5744 5743 5741 5740
5720 5723 5724 5727 5730 5731 5733 5734 5735 5737 5738 5739 5740 5741 5742 5742 5743 5744 5744 5744 5744 5744 5744 5743 5743 5743 5743 5743 5743 5744 5744 5743 5743 5742 5742 5741 5741 5740 5739 5738 5737 5736 5735 5734
5713 5715 5718 5720 5722 5724 5726 5727 5729 5731 5732 5733 5734 5735 5736 5737 5737 5737 5738 5738 5738 5738 5737 5737 5737 5737 5737 5737 5737 5737 5737 5737 5736 5736 5736 5735 5734 5734 5733 5732 5731 5730 5729 5728
5707 5709 5710 5712 5715 5717 5720 5721 5723 5724 5726 5727 5728 5729 5730 5730 5731 5731 5731 5731 5732 5731 5731 5731 5731 5731 5731 5731 5731 5731 5731 5730 5730 5730 5729 5728 5728 5727 5726 5725 5724 5723 5722 5721
5700 5702 5704 5706 5708 5711 5713 5715 5716 5718 5719 5721 5722 5723 5723 5724 5724 5725 5725 5725 5725 5725 5725 5725 5725 5725 5725 5725 5724 5724 5724 5724 5724 5723 5723 5722 5721 5720 5719 5719 5717 5716 5715 5713
Wind_Speed
16 16 16 17 18 18 18 18 18 17 18 18 17 16 15 15 15 15 14 14 14 13 13 13 12 12 12 12 13 12 11 11 10 10 10 10 10 10 10 10 11 10 11 11
16 15 16 17 18 18 19 19 19 19 18 19 19 18 17 16 16 15 15 16 15 14 14 13 12 13 13 13 13 13 12 12 10 10 11 11 12 11 11 11 12 11 11 11
17 16 17 17 18 19 19 19 19 19 19 20 20 18 17 17 17 17 17 16 15 14 13 12 13 13 13 13 14 15 13 12 11 11 11 12 12 12 12 12 12 11 11 12
18 18 18 18 18 19 18 18 18 18 19 19 19 18 16 17 17 17 16 15 14 14 13 13 14 14 13 13 13 13 11 11 11 11 11 11 11 11 11 11 11 11 12 12
18 18 18 18 18 18 16 17 18 18 19 19 19 19 16 17 17 16 16 15 14 14 14 14 14 13 13 12 12 11 10 10 10 10 11 11 11 10 11 12 12 12 11 12
17 18 18 18 17 17 16 18 18 19 19 19 17 19 15 16 16 16 15 15 14 13 14 15 14 12 12 12 11 10 10 10 10 11 11 11 11 11 11 11 12 11 12 12
18 18 18 18 18 17 17 18 19 19 19 18 17 18 15 15 16 15 15 15 15 14 14 14 12 11 11 11 10 10 10 10 10 11 11 12 12 12 11 11 11 12 12 13
17 17 17 17 16 17 17 19 20 20 18 17 17 17 15 14 14 15 15 15 14 14 13 13 13 12 11 11 10 10 10 10 10 11 11 11 11 11 11 11 11 11 12 12
16 17 17 16 16 17 18 19 20 20 19 18 17 17 15 15 16 15 15 14 14 14 13 13 13 12 11 10 10 10 10 11 11 11 11 11 11 10 11 11 11 12 12 12
17 18 17 17 17 17 18 18 18 20 20 19 18 17 16 16 16 15 15 14 14 14 14 13 13 13 12 11 10 10 11 11 11 11 11 11 11 11 11 11 11 11 11 12
18 18 17 18 18 18 18 17 18 18 19 19 18 16 14 15 15 15 15 15 14 14 15 15 14 13 12 11 11 12 12 12 11 11 12 12 12 13 12 12 12 12 12 12
19 19 19 19 18 18 18 18 18 18 19 19 17 15 14 15 13 13 14 14 14 15 15 15 14 14 14 13 12 13 13 13 12 11 12 12 12 12 12 13 13 13 13 13
20 21 21 20 20 19 20 19 18 19 18 18 17 15 14 14 13 13 13 14 15 15 15 14 14 13 14 13 13 13 13 13 12 11 12 12 12 12 12 13 13 13 13 14
21 22 22 21 21 20 20 19 19 18 17 17 17 15 14 14 13 13 13 14 15 15 15 15 15 15 14 14 14 13 13 13 13 13 13 13 13 13 13 13 13 13 14 14
21 21 21 20 20 20 19 19 19 19 18 17 16 15 14 14 14 13 14 15 15 15 14 15 17 16 15 15 15 14 14 14 13 14 14 14 14 14 14 14 14 14 15 15
22 21 21 20 20 19 18 18 19 18 18 17 17 16 14 13 14 14 14 15 15 15 15 16 16 16 16 16 16 16 15 15 14 14 15 15 15 15 16 16 16 15 16 16
22 22 21 21 19 20 19 18 18 19 19 18 18 16 16 15 14 14 16 17 17 17 17 18 17 17 17 17 17 17 16 16 15 15 16 15 16 16 16 17 16 17 17 18
22 21 21 21 20 21 19 18 18 18 18 19 18 17 17 16 16 16 16 17 17 18 18 18 18 18 17 17 17 17 16 16 16 17 16 16 16 17 17 17 16 17 17 17
22 22 22 21 21 21 19 18 18 19 19 19 19 18 18 17 16 16 16 17 18 18 18 18 18 17 17 17 17 17 17 17 17 17 17 17 17 17 17 17 17 18 17 17
23 23 23 22 22 21 20 19 18 19 20 19 19 19 19 17 17 16 16 17 18 18 18 18 18 17 18 18 18 18 18 17 17 17 18 18 18 18 17 17 18 18 17 18
24 24 23 23 23 22 20 19 19 19 19 20 20 20 20 19 18 17 18 18 18 18 18 18 18 18 18 19 19 19 19 18 17 18 18 18 17 17 17 17 18 19 19 19
25 24 24 24 24 23 21 21 21 20 20 20 20 20 20 20 20 19 19 18 18 19 19 18 18 18 19 19 19 19 19 19 19 19 19 18 18 18 19 19 19 19 20 21
25 24 24 24 24 23 24 24 23 22 21 20 20 20 20 20 20 19 19 18 18 19 19 19 19 19 19 19 19 20 20 20 20 19 20 20 20 20 20 21 20 20 21 21
24 24 24 25 24 24 24 24 24 23 21 20 20 20 20 20 19 20 19 19 19 19 19 19 19 19 19 19 19 20 20 19 20 20 20 20 21 21 21 22 21 21 22 22
23 24 24 25 25 25 24 23 23 23 23 22 21 21 21 21 20 20 20 19 19 19 19 19 19 19 20 20 20 20 20 20 21 21 20 20 20 20 21 21 21 21 21 22
23 23 23 23 23 23 23 22 22 23 22 22 22 22 21 22 21 21 21 20 20 20 20 20 20 20 20 20 21 21 21 20 21 20 20 21 21 21 22 22 21 21 21 22
Wind_Direction
251 253 254 256 257 259 259 258 258 256 255 257 259 262 265 267 268 272 277 278 281 284 285 287 290 297 299 300 300 293 294 294 293 294 294 293 289 287 287 287 286 282 278 274
251 257 256 253 254 257 259 260 261 259 256 257 258 260 264 266 267 270 274 277 280 277 277 284 287 291 293 296 296 290 288 286 286 288 287 289 287 284 284 284 284 283 283 279
255 257 255 255 256 255 258 262 262 260 257 258 261 261 261 264 265 266 271 274 276 275 275 280 286 288 287 290 291 292 285 282 279 283 290 290 288 283 285 288 288 288 288 288
253 254 254 256 256 257 258 261 263 260 259 259 262 263 260 263 267 270 273 275 277 274 274 282 286 286 289 288 287 290 283 281 279 282 288 290 285 282 283 288 291 288 291 290
253 251 252 256 258 259 257 258 262 260 260 262 263 266 263 262 265 270 273 272 273 273 273 276 280 279 282 287 288 286 280 281 281 286 288 288 288 285 283 287 287 288 290 289
253 253 253 254 254 256 257 257 259 260 261 262 264 267 265 265 268 271 271 270 269 272 273 273 274 272 272 278 283 278 277 278 280 283 287 289 288 287 286 288 289 288 286 284
250 251 252 253 253 254 257 258 260 262 262 265 265 267 266 268 270 270 268 268 266 270 271 272 267 266 271 274 273 271 275 277 278 281 284 286 286 287 286 289 292 291 289 286
253 250 250 250 253 256 258 261 262 264 263 264 265 269 269 269 269 270 268 266 264 265 266 267 265 266 268 268 269 269 271 274 276 278 280 282 284 287 288 289 292 293 289 286
257 255 251 250 252 256 260 260 262 262 265 266 267 268 266 265 268 270 269 263 260 260 261 263 265 265 263 265 267 269 270 271 275 275 278 280 279 285 287 289 291 295 297 293
257 258 253 254 255 256 261 263 262 265 267 270 270 271 270 267 271 272 269 264 260 262 265 263 266 262 262 263 266 271 272 272 275 276 276 278 278 279 283 285 289 292 296 297
255 257 253 253 254 258 259 259 263 267 267 271 273 273 275 275 270 264 262 261 259 263 268 267 265 261 261 263 268 269 272 275 278 281 280 278 277 275 279 282 286 289 293 295
254 253 253 256 258 259 258 257 259 264 269 272 272 272 271 272 269 262 261 258 262 265 267 266 266 267 264 265 269 274 273 278 283 283 281 280 276 275 276 280 284 287 289 289
255 253 254 256 258 258 258 259 258 260 265 268 269 271 266 266 266 262 260 263 265 265 264 265 267 267 266 267 272 277 275 278 282 284 282 278 275 276 277 278 281 282 285 287
254 253 254 258 263 262 260 259 258 259 264 267 266 269 263 262 261 258 261 267 269 264 261 267 271 271 268 268 271 274 277 279 279 280 278 275 275 275 277 276 277 279 283 284
252 252 254 257 261 264 263 259 259 258 262 264 262 264 262 261 259 263 263 266 268 265 263 268 271 270 268 271 276 277 279 280 280 279 276 273 273 276 276 275 277 280 283 285
251 252 254 256 259 260 259 257 259 258 258 259 260 261 261 261 260 264 267 269 269 266 268 271 273 270 270 272 275 278 279 280 281 282 282 279 278 278 278 279 279 282 286 287
248 250 254 257 259 259 256 256 255 256 258 258 260 259 256 258 260 264 265 267 266 268 272 274 274 274 274 273 274 277 279 280 282 280 279 277 278 281 281 281 281 282 283 284
247 250 253 256 258 256 256 254 254 256 256 257 259 258 260 261 263 263 263 263 263 265 268 271 274 277 276 275 275 277 277 276 277 278 277 277 280 282 281 281 282 283 283 285
246 249 252 255 257 258 256 256 256 254 257 257 259 260 260 261 263 265 264 265 263 265 268 270 271 273 272 272 275 277 276 276 278 280 281 279 280 281 281 280 280 282 283 284
246 248 251 254 256 257 258 258 257 254 255 257 259 261 260 260 263 265 266 267 266 267 271 272 272 271 268 268 270 274 277 277 277 280 282 280 279 280 280 280 280 282 284 284
248 249 249 252 255 256 255 257 258 256 254 255 259 260 260 261 262 265 267 267 266 267 270 271 271 271 271 269 270 270 272 273 274 277 279 280 278 280 280 280 281 283 284 285
249 248 249 252 252 253 253 253 255 257 257 258 259 260 260 261 264 267 269 268 268 270 272 271 270 270 270 269 269 270 271 275 275 275 275 277 277 277 278 279 280 282 283 284
245 245 247 249 249 251 252 253 255 256 258 258 260 262 261 262 265 268 267 268 269 271 273 273 271 272 271 269 269 269 271 273 274 273 274 277 278 278 278 278 280 282 284 284
246 244 246 247 246 249 252 254 257 259 260 262 262 261 260 262 264 267 266 268 270 273 273 272 272 272 272 271 270 270 271 272 274 275 276 278 279 279 280 281 281 284 284 285
245 244 244 245 247 248 251 254 256 259 260 261 263 264 263 264 265 266 265 267 269 273 272 270 270 270 269 270 272 272 272 274 276 277 277 278 279 279 280 282 285 286 286 286
248 247 246 244 245 247 249 252 254 257 259 260 261 262 264 266 266 264 266 268 270 273 272 269 268 268 268 272 272 272 272 273 275 275 275 276 278 278 280 282 285 287 288 287